Orbital Elements at Epoch 2459200.5 (2020-Dec-17.0) TDB
Reference: JPL 25 (heliocentric ecliptic J2000)
Element | Value | Uncertainty (1-sigma) | Units |
e | .1929342305332263 | 3.6661e-08 | |
a | 2.417684004411063 | 6.4027e-09 | au |
q | 1.951230001347525 | 8.9509e-08 | au |
i | 2.557585415858374 | 5.3154e-06 | deg |
node | 359.6192966968413 | 7.4659e-05 | deg |
peri | 71.35117022809841 | 7.6327e-05 | deg |
M | 347.8066233747475 | 1.3208e-05 | deg |
tp | 2459247.007095798819 (2021-Feb-01.50709580) | 5.0353e-05 | TDB |
period | 1373.085979555582 3.76 | 5.4545e-06 1.493e-08 | d yr |
n | .2621831446538541 | 1.0415e-09 | deg/d |
Q | 2.884138007474601 | 7.638e-09 | au |
|
| | Orbit Determination Parameters
Additional Information
|